Regional Weather Roundup
Issued by NWS Jackson, KY

Home | Current Version | Previous Version | Text Only | Print | Product List | Glossary Off
Versions: 1 2 3 4 5 6 7 8 9 10 11 12 13 14 15 16 17 18 19 20 21 22 23 24 25 26 27 28 29 30 31 32 33 34 35 36 37 38 39 40 41 42 43 44 45 46 47 48 49 50

000
ASUS43 KJKL 231410
RWRJKL

EAST KENTUCKY HOURLY WEATHER ROUNDUP
NATIONAL WEATHER SERVICE JACKSON KY
1000 AM EDT SAT MAY 23 2015

NOTE: "FAIR" INDICATES FEW OR NO CLOUDS BELOW 12,000 FEET WITH
NO SIGNIFICANT WEATHER AND/OR OBSTRUCTIONS TO VISIBILITY.

* THESE REPORTS ARE NOT UNDER NWS QUALITY CONTROL AND MAY NOT
  REPORT WEATHER SUCH AS PRECIPITATION AND FOG.

KYZ079-080-083-085-087-088-110-112-115-119-120-231500
...EASTERN KENTUCKY...

CITY           SKY/WX    TMP DP  RH WIND       PRES   REMARKS
JACKSON        PTSUNNY   63  50  62 CALM      30.43R
LONDON         SUNNY     66  46  48 CALM      30.42R
SOMERSET*      MOSUNNY   64  46  52 SE3       30.43R
MONTICELLO*    SUNNY     69  48  46 E9        30.44R
MIDDLESBORO*   SUNNY     59  50  73 CALM      30.43F
HARLAN APT*    MOSUNNY   59  46  63 CALM      30.44S
HAZARD APT*    SUNNY     66  54  63 CALM      30.43R
BLACK MTN*       N/A     59  46  63 E2          N/A
PIKEVILLE APT* SUNNY     59  48  67 SE5       30.44R
BIG SANDY*     PTSUNNY   61  51  68 CALM      30.43S
MOREHEAD APT*  MOSUNNY   63  52  67 CALM      30.43R
$$

KYZ035-036-041-042-044-050-067-078-099-231500
...CENTRAL KENTUCKY...

CITY           SKY/WX    TMP DP  RH WIND       PRES   REMARKS
MT STERLING*   PTSUNNY   68  52  56 S5        30.42S
FLEMING/MASON* SUNNY     63  52  67 CALM      30.42R
DANVILLE*      MOSUNNY   68  50  52 SE5       30.42S
RICHMOND*      MOSUNNY   68  48  49 S5        30.41S
LEXINGTON      PTSUNNY   66  53  63 SE5       30.40S
FRANKFORT      CLOUDY    63  51  65 SE3       30.38S
$$

KYZ091>093-OHZ055-061-077-WVZ005-015-034-035-042-231500
...SOUTHERN OHIO/WEST VIRGINIA...

CITY           SKY/WX    TMP DP  RH WIND       PRES   REMARKS
COVINGTON      PTSUNNY   65  51  60 SE6       30.39S
COLUMBUS       MOSUNNY   62  37  39 SE7       30.41S
DAYTON         PTSUNNY   63  45  51 SE6       30.41R
WILMINGTON     MOSUNNY   65  44  46 S6        30.40R
HUNTINGTON     PTSUNNY   61  51  70 SW3       30.41R
CHARLESTON     PTSUNNY   61  51  70 CALM      30.42R
PINEVILLE*     PTSUNNY   60  50  70 MISG      30.51R
BECKLEY        CLOUDY    61  43  51 SW5       30.46R
BLUEFIELD      MOSUNNY   62  40  44 SW3       30.47S
$$

VAZ002-007-008-TNZ017-027-036-066-071-231500
...SOUTHWEST VIRGINIA/EAST TENNESSEE...

CITY           SKY/WX    TMP DP  RH WIND       PRES   REMARKS
WISE*          MOSUNNY   64  41  42 E5        30.47S
JONESVILLE*    MOSUNNY   64  46  52 E3        30.45S
ABINGDON*      SUNNY     66  42  40 SE9       30.44S
BRISTOL        MOSUNNY   62  47  57 CALM      30.44R
KNOXVILLE      PTSUNNY   61  50  67 NE6       30.40R
OAK RIDGE      PTSUNNY   66  48  52 VRB5      30.42S
CROSSVILLE     SUNNY     64  47  53 E6        30.41R
NASHVILLE      PTSUNNY   66  52  60 CALM      30.37S
$$

...KEY TO REMARKS...
VSB - VISIBILITY IN MILES
WCI - WIND CHILL INDEX
HX  - HEAT INDEX

$$


USA.gov is the U.S. government's official web portal to all federal, state and local government web resources and services.